Вернуться в каталог

ARIANE 5 R/B

АктивенGTO
NORAD 27462·ROCKET BODY·🇫🇷 France

Запущен Jul 5, 2002 с Guiana Space Centre

Loading…

TLE

УстаревающийSource: Space-Track

Эпоха: Sep 14, 2026, 19:35 UTC

1 27462U 02035C   26257.81626779 -.00000050  00000-0  16668-2 0  9994
2 27462   5.3805  65.8548 7166593 140.0502 296.6749  2.22720875196935

Отслеживайте ARIANE 5 R/B в реальном времени с AllMySat

Download on the App Store